Time,TemperatureF,DewpointF,PressureIn,WindDirection,WindDirectionDegrees,WindSpeedMPH,WindSpeedGustMPH,Humidity,HourlyPrecipIn,Conditions,Clouds,dailyrainin,SoftwareType,DateUTC
2013-02-14 00:52:00,76.0,-99.9,30.01,South,170,10.0,13.0,-999,-99.99,,,-99.99,,2013-02-14 05:52:00,
2013-02-14 01:52:00,77.0,-99.9,29.98,South,170,9.0,10.0,-999,-99.99,,,-99.99,,2013-02-14 06:52:00,
2013-02-14 02:52:00,77.0,-99.9,29.96,South,170,8.0,9.0,-999,-99.99,,,-99.99,,2013-02-14 07:52:00,
2013-02-14 03:52:00,76.0,-99.9,29.95,SSE,150,5.0,7.0,-999,-99.99,,,-99.99,,2013-02-14 08:52:00,
2013-02-14 04:52:00,76.0,-99.9,29.94,SSE,160,6.0,8.0,-999,-99.99,,,-99.99,,2013-02-14 09:52:00,
2013-02-14 05:52:00,76.0,-99.9,29.94,SSE,160,5.0,7.0,-999,-99.99,,,-99.99,,2013-02-14 10:52:00,
2013-02-14 06:52:00,76.0,-99.9,29.94,South,180,8.0,9.0,-999,-99.99,,,-99.99,,2013-02-14 11:52:00,
2013-02-14 07:53:00,76.0,-99.9,29.96,SSE,160,3.0,6.0,-999,-99.99,,,-99.99,,2013-02-14 12:53:00,
2013-02-14 08:52:00,77.0,-99.9,29.98,South,170,5.0,6.0,-999,-99.99,,,-99.99,,2013-02-14 13:52:00,
2013-02-14 09:52:00,77.0,-99.9,29.99,SSW,200,8.0,9.0,-999,-99.99,,,-99.99,,2013-02-14 14:52:00,
2013-02-14 10:52:00,77.0,-99.9,30.01,South,190,9.0,10.0,-999,-99.99,,,-99.99,,2013-02-14 15:52:00,
2013-02-14 11:52:00,78.0,-99.9,30.01,South,190,9.0,10.0,-999,-99.99,,,-99.99,,2013-02-14 16:52:00,
2013-02-14 12:52:00,78.0,-99.9,29.99,South,190,13.0,15.0,-999,-99.99,,,-99.99,,2013-02-14 17:52:00,
2013-02-14 13:52:00,78.0,-99.9,29.96,SSW,200,16.0,20.0,-999,-99.99,,,-99.99,,2013-02-14 18:52:00,
2013-02-14 14:52:00,78.0,-99.9,29.93,SSW,200,15.0,18.0,-999,-99.99,,,-99.99,,2013-02-14 19:52:00,
2013-02-14 15:52:00,78.0,-99.9,29.92,SSW,210,14.0,16.0,-999,-99.99,,,-99.99,,2013-02-14 20:52:00,
2013-02-14 16:52:00,78.0,-99.9,29.92,SSW,200,11.0,14.0,-999,-99.99,,,-99.99,,2013-02-14 21:52:00,
2013-02-14 17:52:00,78.0,-99.9,29.92,SSW,200,10.0,13.0,-999,-99.99,,,-99.99,,2013-02-14 22:52:00,
2013-02-14 18:52:00,78.0,-99.9,29.93,South,170,7.0,9.0,-999,-99.99,,,-99.99,,2013-02-14 23:52:00,
2013-02-14 19:52:00,78.0,-99.9,29.93,SSE,150,5.0,7.0,-999,-99.99,,,-99.99,,2013-02-15 00:52:00,
2013-02-14 20:52:00,78.0,-99.9,29.94,East,100,2.0,3.0,-999,-99.99,,,-99.99,,2013-02-15 01:52:00,
2013-02-14 21:52:00,69.0,-99.9,29.97,NNE,20,23.0,28.0,-999,-99.99,,,-99.99,,2013-02-15 02:52:00,
2013-02-14 22:52:00,-999.0,-99.9,29.99,NE,50,23.0,28.0,-999,-99.99,,,-99.99,,2013-02-15 03:52:00,
2013-02-14 23:52:00,65.0,-99.9,30.01,NE,40,15.0,20.0,-999,-99.99,,,-99.99,,2013-02-15 04:52:00,